Simultaneous Nadir Overpasses (SNOs) Predictions

Prediction of SNOs between METOP-C and LANDSAT-8 Satellite Orbit:

Table of predicted SNOs for the next 14.0 days since TLE Epoch: 6/22/2019
Index Date (METOP-C) Time (METOP-C) Lat,Lon (METOP-C) SZA (METOP-C ) Date (LANDSAT-8) Time (LANDSAT-8) Lat,Lon (LANDSAT-8) SZA (LANDSAT-8 ) Distance(km) Time Diff (sec)
1 06/24/2019 02:28:02 -81.13, 2.94 120.18 06/24/2019 02:28:27 -81.12, 2.94 120.17 0.25 25
2 06/24/2019 03:18:40 81.15, 171.04 59.93 06/24/2019 03:17:52 81.15, 171.03 59.90 0.19 48
3 06/26/2019 22:02:25 -81.13, 69.38 120.11 06/26/2019 22:02:43 -81.13, 69.42 120.10 0.72 18
4 06/26/2019 22:53:03 81.15,-122.51 59.99 06/26/2019 22:52:08 81.15,-122.51 59.97 0.12 55
5 06/29/2019 17:36:47 -81.13, 135.82 120.00 06/29/2019 17:36:58 -81.13, 135.88 119.99 1.16 11
6 06/29/2019 18:27:25 81.16, -56.05 60.11 06/29/2019 18:26:23 81.15, -56.07 60.08 0.42 62
7 07/02/2019 13:11:10 -81.13,-157.75 119.83 07/02/2019 13:11:14 -81.13,-157.68 119.82 1.26 4
8 07/02/2019 14:01:48 81.16, 10.41 60.29 07/02/2019 14:00:39 81.15, 10.35 60.25 1.21 69
9 07/05/2019 07:54:52 81.13, 101.23 60.38 07/05/2019 07:56:03 81.13, 101.07 60.40 2.82 71




NCC Satellite Simultaneous Nadir Overpasses (SNOs) Prediction Service
